Terminal Aerodrome Forecast
Issued by NWS Miami, FL

Home | Current Version | Previous Version | Text Only | Print | Product List | Glossary On
Versions: 1 2 3 4 5 6 7 8 9 10 11 12 13 14 15 16 17 18 19 20 21 22 23 24 25 26 27 28 29 30 31 32 33 34 35 36 37 38 39 40 41 42 43 44 45 46 47 48 49 50
000
FTUS42 KMFL 200242 AAA
TAFPBI
TAF AMD
KPBI 200242Z 2003/2024 VRB03KT P6SM VCSH SCT030 BKN080 BKN120
     FM200700 VRB03KT P6SM -SHRA BKN030 OVC090
     FM201200 22008KT P6SM SHRA SCT035 BKN050 PROB30 2012/2018 3SM
      +TSRA BKN025CB=

USA.gov is the U.S. government's official web portal to all federal, state and local government web resources and services.